Regional Weather Roundup
Issued by NWS

Home | Current Version | Previous Version | Graphics & Text | Print | Product List | Glossary On
Versions: 1 2 3 4 5 6 7 8 9 10 11 12 13 14 15 16 17 18 19 20 21 22 23 24 25 26 27 28 29 30 31 32 33 34 35 36 37 38 39 40 41 42 43 44 45 46 47 48 49 50
000
ASUS43 KTOP 231459
RWRKS

WEATHER ROUNDUP FOR KANSAS
NATIONAL WEATHER SERVICE GOODLAND KS
1000 AM CDT TUE MAY 23 2017

NOTE:  "FAIR" INDICATES FEW OR NO CLOUDS BELOW 12,000 FEET WITH NO
SIGNIFICANT WEATHER AND/OR OBSTRUCTIONS TO VISIBILITY.

KSZ001>006-013>018-027>032-041>047-231600-
NORTHWEST KANSAS

CITY           SKY/WX    TMP DP  RH WIND       PRES   REMARKS
GOODLAND       SUNNY     52  43  71 NW18      30.12S
HAYS           SUNNY     58  46  64 NW14      30.03F
HILL CITY      PTSUNNY   57  45  64 NW15      30.05F
RUSSELL        SUNNY     57  48  72 NW15      30.01F
$$

KSZ061>065-074>080-084>089-231600-
SOUTHWEST KANSAS

CITY           SKY/WX    TMP DP  RH WIND       PRES   REMARKS
DODGE CITY     SUNNY     56  43  61 NW13G22   30.07F
ELKHART          N/A     50  33  52 NW12        N/A
GARDEN CITY    SUNNY     56  41  57 NW15      30.10S
GREAT BEND     SUNNY     57  47  69 NW13      30.02F
LIBERAL        PTSUNNY   53  44  71 N16       30.12F
$$

KSZ066>073-081>083-090>101-231600-
SOUTHEAST KANSAS

CITY           SKY/WX    TMP DP  RH WIND       PRES   REMARKS
CHANUTE        CLOUDY    60  51  72 NW14      29.90
COFFEYVILLE    CLOUDY    60  53  77 N17       29.90R
HUTCHINSON     MOSUNNY   61  48  62 N13G23    29.98F
MEDICINE LODGE   N/A     59  44  57 N18       30.00F
NEWTON         MOSUNNY   58  48  69 N20       29.97F
PARSONS        CLOUDY    59  53  80 NW7       29.91R
WICHITA INTL   PTSUNNY   58  47  66 N15       29.97S
WICHITA JABRA  CLOUDY    58  48  69 N16       29.97S
WICHITA MCCONL PTSUNNY   58  48  69 N15       29.96S
WINFIELD       CLOUDY    58  51  78 N15G22    29.97S
$$

KSZ007>012-019>026-033>040-048>060-102>105-231600-
NORTHEAST KANSAS

CITY           SKY/WX    TMP DP  RH WIND       PRES   REMARKS
CONCORDIA      SUNNY     58  48  69 NW9       29.98F
EMPORIA        SUNNY     59  46  62 N12G23    29.93S
LAWRENCE       CLOUDY    58  51  78 NW13G20   29.91S
MANHATTAN      SUNNY     61  48  62 N14       29.94F
OLATHE IND     MOSUNNY   59  50  72 N14       29.90S
OLATHE EXE     PTSUNNY   57  50  77 N16G23    29.89S
SALINA         SUNNY     61  49  64 N15       29.98R
TOPEKA BILLARD SUNNY     61  52  72 NW13      29.91F
TOPEKA FORBES  SUNNY     60  50  69 N10       29.92S
$$




USA.gov is the U.S. government's official web portal to all federal, state and local government web resources and services.